EA7WL-13 Weather Reports


Display with metric or nautical units.
time (UTC)temp
F
wind
direction
speed
MPH
gust
MPH
rain 1hr
in
rain 24hr
in
rain mn
in
humidity
%
barometer
mb
20260508122718 68 191 8.0 18.0 0.00 0.00 0.00 45 1014.3
20260508122003 66 164 6.0 16.0 0.00 0.00 0.00 48 1014.4
20260508121718 68 167 6.0 16.0 0.00 0.00 0.00 47 1014.3
20260508121217 67 184 6.0 15.0 0.00 0.00 0.00 49 1014.5
20260508120503 66 205 6.0 16.0 0.00 0.00 0.00 49 1014.5
20260508120217 65 197 8.0 16.0 0.00 0.00 0.00 50 1014.4
20260508115503 65 180 8.0 16.0 0.00 0.00 0.00 52 1014.5
20260508115003 65 180 6.0 15.0 0.00 0.00 0.00 48 1014.5
20260508114503 67 197 7.0 15.0 0.00 0.00 0.00 48 1014.4
20260508114003 65 205 9.0 18.0 0.00 0.00 0.00 48 1014.4
20260508113718 65 219 8.0 18.0 0.00 0.00 0.00 49 1014.5
20260508113217 66 220 6.0 16.0 0.00 0.00 0.00 48 1014.5
20260508112503 64 218 7.0 15.0 0.00 0.00 0.00 51 1014.5
20260508112217 64 221 7.0 15.0 0.00 0.00 0.00 50 1014.7
20260508111503 65 169 5.0 14.0 0.00 0.00 0.00 52 1014.7
20260508111003 65 175 6.0 14.0 0.00 0.00 0.00 51 1014.6
20260508110503 66 205 7.0 14.0 0.00 0.00 0.00 50 1014.6
20260508110003 64 210 7.0 15.0 0.00 0.00 0.00 52 1014.6
20260508105503 64 179 7.0 16.0 0.00 0.00 0.00 54 1014.6
20260508105003 65 163 7.0 16.0 0.00 0.00 0.00 50 1014.8
20260508104503 65 175 7.0 15.0 0.00 0.00 0.00 52 1014.7
20260508104003 65 175 7.0 15.0 0.00 0.00 0.00 50 1014.6
20260508103503 64 179 9.0 17.0 0.00 0.00 0.00 52 1014.6
20260508103003 64 181 9.0 17.0 0.00 0.00 0.00 51 1014.7
20260508102503 64 171 8.0 16.0 0.00 0.00 0.00 52 1014.8
20260508102003 64 173 8.0 16.0 0.00 0.00 0.00 54 1014.8
20260508101503 63 172 8.0 19.0 0.00 0.00 0.00 53 1014.8
20260508101003 64 180 9.0 19.0 0.00 0.00 0.00 54 1014.9
20260508100503 63 177 9.0 16.0 0.00 0.00 0.00 54 1014.9
20260508100003 64 172 8.0 18.0 0.00 0.00 0.00 54 1015.1
20260508095503 63 171 9.0 18.0 0.00 0.00 0.00 55 1015.0
20260508095003 64 166 8.0 16.0 0.00 0.00 0.00 55 1015.0
20260508094503 63 170 7.0 15.0 0.00 0.00 0.00 55 1015.0
20260508094003 62 170 8.0 15.0 0.00 0.00 0.00 56 1015.2
20260508093503 62 173 6.0 14.0 0.00 0.00 0.00 57 1015.3
20260508093003 63 192 5.0 14.0 0.00 0.00 0.00 57 1015.2
20260508092503 61 192 7.0 15.0 0.00 0.00 0.00 59 1015.2
20260508092003 61 171 8.0 15.0 0.00 0.00 0.00 59 1015.1
20260508091717 62 164 8.0 15.0 0.00 0.00 0.00 58 1015.1
20260508091003 62 174 9.0 17.0 0.00 0.00 0.00 58 1015.0
20260508090503 61 180 9.0 17.0 0.00 0.00 0.00 59 1015.0
20260508090003 61 181 8.0 15.0 0.00 0.00 0.00 60 1015.1
20260508085503 60 181 7.0 14.0 0.00 0.00 0.00 61 1015.1
20260508085003 60 180 6.0 14.0 0.00 0.00 0.00 62 1014.9
20260508084503 59 181 5.0 11.0 0.00 0.00 0.00 62 1014.8
20260508084003 59 185 6.0 13.0 0.00 0.00 0.00 64 1014.9
20260508083503 59 193 6.0 13.0 0.00 0.00 0.00 64 1015.1
20260508083003 59 201 5.0 10.0 0.00 0.00 0.00 64 1014.9
20260508082717 59 200 5.0 9.0 0.00 0.00 0.00 64 1014.8
20260508082003 59 198 4.0 9.0 0.00 0.00 0.00 64 1014.9
20260508081504 58 199 4.0 10.0 0.00 0.00 0.00 66 1014.8
20260508081003 58 196 7.0 14.0 0.00 0.00 0.00 65 1014.7
20260508080503 58 209 6.0 14.0 0.00 0.00 0.00 66 1014.8
20260508080003 57 216 3.0 9.0 0.00 0.00 0.00 67 1014.8
20260508075503 57 243 2.0 8.0 0.00 0.00 0.00 69 1014.7
20260508075217 57 256 3.0 8.0 0.00 0.00 0.00 70 1014.8
20260508074503 56 301 4.0 7.0 0.00 0.00 0.00 71 1014.7
20260508074003 56 309 4.0 7.0 0.00 0.00 0.00 71 1014.7
20260508073503 55 306 4.0 7.0 0.00 0.00 0.00 72 1014.7
20260508073003 56 286 4.0 7.0 0.00 0.00 0.00 68 1014.7
20260508072503 56 279 4.0 7.0 0.00 0.00 0.00 68 1014.9
20260508072003 56 280 3.0 7.0 0.00 0.00 0.00 68 1014.7
20260508071503 56 278 3.0 4.0 0.00 0.00 0.00 68 1014.9
20260508071003 56 253 2.0 4.0 0.00 0.00 0.00 68 1014.6
20260508070718 56 246 1.0 3.0 0.00 0.00 0.00 67 1014.7
20260508070003 56 247 1.0 3.0 0.00 0.00 0.00 67 1014.5
20260508065503 56 256 1.0 3.0 0.00 0.00 0.00 68 1014.7
20260508065003 56 271 1.0 3.0 0.00 0.00 0.00 68 1014.7
20260508064503 56 263 0.0 2.0 0.00 0.00 0.00 68 1014.6
20260508064003 56 284 0.0 1.0 0.00 0.00 0.00 70 1014.4
20260508063503 54 303 0.0 3.0 0.00 0.00 0.00 73 1014.5
20260508063003 53 189 1.0 3.0 0.00 0.00 0.00 75 1014.6
20260508062503 53 187 1.0 2.0 0.00 0.00 0.00 75 1014.4
20260508062003 53 244 0.0 2.0 0.00 0.00 0.00 73 1014.4
20260508061503 52 169 1.0 2.0 0.00 0.00 0.00 75 1014.3
20260508061217 52 189 1.0 2.0 0.00 0.00 0.00 75 1014.5
20260508060503 52 276 2.0 3.0 0.00 0.00 0.00 74 1014.5
20260508060003 52 288 2.0 4.0 0.00 0.00 0.00 74 1014.4
20260508055503 53 301 1.0 4.0 0.00 0.00 0.00 74 1014.2
20260508055003 53 256 1.0 3.0 0.00 0.00 0.00 74 1014.2
20260508054503 52 260 1.0 3.0 0.00 0.00 0.00 74 1014.2
20260508054003 52 260 1.0 2.0 0.00 0.00 0.00 75 1013.9
20260508053503 52 317 1.0 4.0 0.00 0.00 0.00 75 1013.7
20260508053003 52 320 2.0 4.0 0.00 0.00 0.00 74 1013.8
20260508052503 52 305 1.0 4.0 0.00 0.00 0.00 75 1013.5
20260508052003 52 284 1.0 3.0 0.00 0.00 0.00 76 1013.4
20260508051503 52 272 1.0 4.0 0.00 0.00 0.00 76 1013.4
20260508051003 51 277 2.0 4.0 0.00 0.00 0.00 77 1013.4
20260508050503 50 257 1.0 4.0 0.00 0.00 0.00 79 1013.4
20260508050216 50 243 1.0 3.0 0.00 0.00 0.00 80 1013.4
20260508045503 50 201 0.0 1.0 0.00 0.00 0.00 78 1013.2
20260508045003 50 200 0.0 2.0 0.00 0.00 0.00 79 1013.5
20260508044503 50 170 0.0 2.0 0.00 0.00 0.00 80 1013.3
20260508044003 50 223 0.0 1.0 0.00 0.00 0.00 80 1013.2
20260508043503 50 249 0.0 1.0 0.00 0.00 0.00 80 1013.1
20260508043218 50 215 0.0 2.0 0.00 0.00 0.00 78 1013.1
20260508042503 50 124 1.0 2.0 0.00 0.00 0.00 79 1013.0
20260508042003 50 106 1.0 2.0 0.00 0.00 0.00 79 1013.2
20260508041504 51 166 0.0 2.0 0.00 0.00 0.00 78 1013.4
20260508041003 50 212 0.0 3.0 0.00 0.00 0.00 77 1013.7
20260508040503 51 241 1.0 3.0 0.00 0.00 0.00 77 1013.8
20260508040003 51 269 2.0 3.0 0.00 0.00 0.00 76 1013.6
20260508035503 51 263 1.0 3.0 0.00 0.00 0.00 76 1013.6
20260508035003 52 240 1.0 2.0 0.00 0.00 0.00 77 1013.8
20260508034503 52 306 1.0 3.0 0.00 0.00 0.00 74 1013.6
20260508034003 52 330 1.0 3.0 0.00 0.00 0.00 74 1013.6
20260508033503 51 9 1.0 3.0 0.00 0.00 0.00 77 1013.7
20260508033003 51 46 2.0 3.0 0.00 0.00 0.00 79 1013.7
20260508032503 52 54 1.0 3.0 0.00 0.00 0.00 77 1013.6
20260508032218 52 276 1.0 3.0 0.00 0.00 0.00 75 1013.9
20260508031717 52 244 1.0 2.0 0.00 0.00 0.00 75 1014.1
20260508031218 53 236 1.0 2.0 0.00 0.00 0.00 74 1014.0
20260508030503 52 201 0.0 2.0 0.00 0.00 0.00 75 1014.0
20260508030003 52 318 0.0 2.0 0.00 0.00 0.00 77 1014.1
20260508025503 51 167 0.0 2.0 0.00 0.00 0.00 78 1014.0
20260508025003 50 164 0.0 2.0 0.00 0.00 0.00 79 1014.0
20260508024503 50 155 1.0 2.0 0.00 0.00 0.00 80 1014.2
20260508024003 51 162 1.0 2.0 0.00 0.00 0.00 78 1014.1
20260508023503 51 227 0.0 1.0 0.00 0.00 0.00 77 1013.9
20260508023003 51 221 1.0 3.0 0.00 0.00 0.00 77 1013.8
20260508022719 51 229 1.0 3.0 0.00 0.00 0.00 77 1013.9
20260508022218 52 238 1.0 2.0 0.00 0.00 0.00 75 1013.9
20260508021503 50 233 1.0 2.0 0.00 0.00 0.00 80 1014.1
20260508021003 50 0 0.0 0.0 0.00 0.00 0.00 81 1013.9
20260508020503 50 192 0.0 1.0 0.00 0.00 0.00 81 1013.9
20260508020217 50 192 0.0 1.0 0.00 0.00 0.00 81 1013.7
20260508015718 50 203 0.0 1.0 0.00 0.00 0.00 80 1013.8
20260508015003 51 222 0.0 2.0 0.00 0.00 0.00 79 1013.9
20260508014503 51 223 0.0 2.0 0.00 0.00 0.00 78 1013.9
20260508014003 51 0 0.0 0.0 0.00 0.00 0.00 77 1013.7
20260508013503 51 207 0.0 1.0 0.00 0.00 0.00 77 1013.9
20260508013217 51 213 0.0 1.0 0.00 0.00 0.00 77 1014.3
20260508012718 51 202 0.0 2.0 0.00 0.00 0.00 77 1014.0
20260508012003 52 261 0.0 1.0 0.00 0.00 0.00 76 1014.1
20260508011503 52 259 0.0 1.0 0.00 0.00 0.00 75 1014.0
20260508011217 52 281 0.0 1.0 0.00 0.00 0.00 76 1014.1
20260508010503 52 103 1.0 2.0 0.00 0.00 0.00 76 1014.1
20260508010003 51 95 1.0 2.0 0.00 0.00 0.00 77 1014.3
20260508005503 52 186 0.0 1.0 0.00 0.00 0.00 76 1014.3
20260508005217 52 202 0.0 1.0 0.00 0.00 0.00 76 1014.4
20260508004503 52 235 1.0 3.0 0.00 0.00 0.00 75 1014.4
20260508004003 52 252 2.0 3.0 0.00 0.00 0.00 75 1014.6
20260508003503 53 262 1.0 3.0 0.00 0.00 0.00 73 1014.3
20260508003217 52 246 0.0 2.0 0.00 0.00 0.00 74 1014.2
20260508002503 53 215 0.0 2.0 0.00 0.00 0.00 74 1014.2
20260508002217 52 199 0.0 2.0 0.00 0.00 0.00 74 1014.2
20260508001503 53 184 1.0 3.0 0.00 0.00 0.00 72 1014.3
20260508001003 54 181 1.0 3.0 0.00 0.00 0.00 71 1014.4
20260508000503 53 174 1.0 3.0 0.00 0.00 0.00 71 1014.2
20260508000003 53 140 1.0 2.0 0.00 0.00 0.00 71 1014.1
20260507235503 53 149 1.0 3.0 0.00 0.00 0.00 72 1014.2
20260507235003 53 157 1.0 3.0 0.00 0.00 0.00 73 1014.4
20260507234717 52 152 1.0 3.0 0.00 0.00 0.00 74 1014.5
20260507234003 52 174 1.0 3.0 0.00 0.00 0.00 75 1014.8
20260507233503 52 166 1.0 3.0 0.00 0.00 0.00 74 1014.9
20260507233003 53 168 0.0 2.0 0.00 0.00 0.00 72 1015.0
20260507232503 53 168 1.0 3.0 0.00 0.00 0.00 72 1015.0
20260507232003 53 287 1.0 3.0 0.00 0.00 0.00 72 1015.2
20260507231503 53 188 1.0 2.0 0.00 0.00 0.00 73 1015.3
20260507231218 53 167 0.0 2.0 0.00 0.00 0.00 73 1015.2
20260507230503 52 150 0.0 3.0 0.00 0.00 0.00 73 1015.2
20260507230004 52 121 1.0 3.0 0.00 0.00 0.00 73 1015.3
20260507225503 52 81 0.0 2.0 0.00 0.00 0.00 72 1015.2
20260507225003 53 188 0.0 1.0 0.00 0.00 0.00 71 1015.2
20260507224503 53 0 0.0 0.0 0.00 0.00 0.00 70 1015.2
20260507224003 53 119 0.0 2.0 0.00 0.00 0.00 70 1015.3
20260507223503 53 65 1.0 2.0 0.00 0.00 0.00 70 1015.2
20260507223003 53 62 1.0 2.0 0.00 0.00 0.00 71 1015.2
20260507222503 53 189 0.0 1.0 0.00 0.00 0.00 72 1015.3
20260507222004 53 188 0.0 1.0 0.00 0.00 0.00 71 1015.5
20260507221503 53 185 0.0 2.0 0.00 0.00 0.00 69 1015.3
20260507221003 53 176 0.0 2.0 0.00 0.00 0.00 69 1015.4
20260507220503 53 185 0.0 2.0 0.00 0.00 0.00 71 1015.5
20260507220003 53 191 0.0 2.0 0.00 0.00 0.00 72 1015.4
20260507215717 53 196 0.0 2.0 0.00 0.00 0.00 71 1015.3
20260507215003 53 197 0.0 1.0 0.00 0.00 0.00 71 1015.2
20260507214503 53 189 0.0 1.0 0.00 0.00 0.00 70 1015.2
20260507214003 53 191 0.0 1.0 0.00 0.00 0.00 70 1015.2
20260507213503 54 209 0.0 2.0 0.00 0.00 0.00 69 1015.3
20260507213003 54 223 1.0 2.0 0.00 0.00 0.00 69 1015.3
20260507212503 54 193 1.0 2.0 0.00 0.00 0.00 66 1015.1
20260507212003 54 168 1.0 2.0 0.00 0.00 0.00 67 1015.2
20260507211503 54 188 0.0 2.0 0.00 0.00 0.00 68 1015.2
20260507211003 55 205 0.0 1.0 0.00 0.00 0.00 67 1015.0
20260507210503 54 207 0.0 1.0 0.00 0.00 0.00 67 1015.1
20260507210218 54 181 0.0 1.0 0.00 0.00 0.00 67 1015.0
20260507205503 55 179 0.0 2.0 0.00 0.00 0.00 67 1015.1
20260507205003 55 184 0.0 2.0 0.00 0.00 0.00 66 1014.8
20260507204503 56 0 0.0 0.0 0.00 0.00 0.00 64 1014.7
20260507204003 56 0 0.0 0.0 0.00 0.00 0.00 61 1014.7
20260507203503 56 207 0.0 1.0 0.00 0.00 0.00 62 1014.8
20260507203003 56 192 0.0 2.0 0.00 0.00 0.00 62 1014.8
20260507202503 56 189 1.0 2.0 0.00 0.00 0.00 62 1014.8
20260507202004 56 186 1.0 2.0 0.00 0.00 0.00 62 1014.7
20260507201718 56 185 1.0 2.0 0.00 0.00 0.00 62 1014.6
20260507201003 57 182 1.0 2.0 0.00 0.00 0.00 62 1014.7
20260507200718 57 183 1.0 1.0 0.00 0.00 0.00 62 1014.6
20260507200003 58 192 0.0 1.0 0.00 0.00 0.00 62 1014.6
20260507195503 58 0 0.0 0.0 0.00 0.00 0.00 61 1014.6
20260507195217 58 200 0.0 1.0 0.00 0.00 0.00 61 1014.6
20260507194503 58 205 1.0 2.0 0.00 0.00 0.00 62 1014.5
20260507194003 59 199 2.0 3.0 0.00 0.00 0.00 59 1014.4
20260507193503 59 203 2.0 4.0 0.00 0.00 0.00 59 1014.4
20260507193217 59 205 3.0 8.0 0.00 0.00 0.00 57 1014.4
20260507192718 60 210 4.0 8.0 0.00 0.00 0.00 56 1014.4
20260507192003 60 225 5.0 9.0 0.00 0.00 0.00 55 1014.3
20260507191718 60 221 4.0 9.0 0.00 0.00 0.00 55 1014.3
20260507191003 60 220 4.0 8.0 0.00 0.00 0.00 55 1014.2
20260507190503 61 218 4.0 8.0 0.00 0.00 0.00 54 1013.9
20260507190004 61 213 5.0 8.0 0.00 0.00 0.00 54 1013.9
20260507185503 61 221 5.0 7.0 0.00 0.00 0.00 54 1013.9
20260507185003 62 240 5.0 10.0 0.00 0.00 0.00 54 1013.9
20260507184503 62 250 5.0 10.0 0.00 0.00 0.00 54 1013.8
20260507184003 62 255 5.0 10.0 0.00 0.00 0.00 55 1013.7
20260507183718 62 258 6.0 10.0 0.00 0.00 0.00 54 1013.7
20260507183003 62 244 6.0 10.0 0.00 0.00 0.00 54 1013.5
20260507182503 62 230 7.0 14.0 0.00 0.00 0.00 54 1013.7
20260507182004 62 241 7.0 14.0 0.00 0.00 0.00 54 1013.5
20260507181503 64 246 6.0 13.0 0.00 0.00 0.00 53 1013.4
20260507181003 63 239 5.0 13.0 0.00 0.00 0.00 53 1013.2
20260507180717 63 236 3.0 13.0 0.00 0.00 0.00 53 1013.3
20260507180003 64 72 1.0 4.0 0.00 0.00 0.00 56 1013.2
20260507175503 63 353 2.0 6.0 0.00 0.00 0.00 58 1013.1
20260507175004 64 251 2.0 6.0 0.00 0.00 0.00 56 1013.2
20260507174503 64 242 3.0 8.0 0.00 0.00 0.00 55 1013.1
20260507174003 63 235 4.0 8.0 0.00 0.00 0.00 56 1013.2
20260507173717 64 246 5.0 10.0 0.00 0.00 0.00 55 1013.1
20260507173004 63 272 6.0 10.0 0.00 0.00 0.00 58 1013.0
20260507172503 63 249 5.0 10.0 0.00 0.00 0.00 58 1013.0
20260507172218 64 231 6.0 11.0 0.00 0.00 0.00 58 1013.1
20260507171503 64 244 6.0 13.0 0.00 0.00 0.00 58 1012.8
20260507171003 64 262 5.0 10.0 0.00 0.00 0.00 57 1012.8
20260507170503 65 271 6.0 11.0 0.00 0.00 0.00 56 1012.7
20260507170003 66 284 6.0 11.0 0.00 0.00 0.00 56 1012.6
20260507165503 66 286 5.0 11.0 0.00 0.00 0.00 55 1012.6
20260507165003 66 261 6.0 14.0 0.00 0.00 0.00 53 1012.6
20260507164503 66 257 7.0 14.0 0.00 0.00 0.00 55 1012.6
20260507164003 64 272 5.0 11.0 0.00 0.00 0.00 57 1012.6
20260507163503 65 276 3.0 10.0 0.00 0.00 0.00 56 1012.7
20260507163003 65 267 3.0 8.0 0.00 0.00 0.00 55 1012.4
20260507162503 64 284 4.0 9.0 0.00 0.00 0.00 55 1012.5
20260507162218 64 293 5.0 10.0 0.00 0.00 0.00 56 1012.4
20260507161503 64 289 6.0 11.0 0.00 0.00 0.00 56 1012.7
20260507161003 64 275 5.0 11.0 0.00 0.00 0.00 56 1012.7
20260507160717 65 271 5.0 11.0 0.00 0.00 0.00 56 1012.6
20260507160003 65 236 5.0 10.0 0.00 0.00 0.00 54 1012.5
20260507155503 65 255 6.0 10.0 0.00 0.00 0.00 55 1012.5
20260507155003 65 269 7.0 11.0 0.00 0.00 0.00 55 1012.6
20260507154503 65 258 7.0 13.0 0.00 0.00 0.00 55 1012.4
20260507154004 66 249 7.0 13.0 0.00 0.00 0.00 53 1012.5
20260507153504 65 250 4.0 10.0 0.00 0.00 0.00 54 1012.5
20260507153003 66 290 1.0 4.0 0.00 0.00 0.00 52 1012.5
20260507152718 66 301 2.0 8.0 0.00 0.00 0.00 52 1012.4
20260507152003 64 306 5.0 14.0 0.00 0.00 0.00 55 1012.5
20260507151503 64 295 6.0 14.0 0.00 0.00 0.00 55 1012.6
20260507151003 64 287 6.0 11.0 0.00 0.00 0.00 55 1012.7
20260507150503 64 282 6.0 13.0 0.00 0.00 0.00 54 1012.7
20260507150003 65 266 6.0 13.0 0.00 0.00 0.00 54 1012.6
20260507145503 65 261 6.0 9.0 0.00 0.00 0.00 54 1012.6
20260507145003 65 265 6.0 10.0 0.00 0.00 0.00 54 1012.7
20260507144503 66 271 5.0 10.0 0.00 0.00 0.00 53 1012.6
20260507144003 67 286 5.0 9.0 0.00 0.00 0.00 50 1012.7
20260507143503 65 276 6.0 10.0 0.00 0.00 0.00 53 1012.8
20260507143003 65 277 5.0 10.0 0.00 0.00 0.00 53 1012.8
20260507142504 66 296 4.0 8.0 0.00 0.00 0.00 51 1012.7
20260507142003 66 293 5.0 10.0 0.00 0.00 0.00 51 1012.8
20260507141503 65 279 6.0 10.0 0.00 0.00 0.00 50 1013.0
20260507141003 66 274 6.0 11.0 0.00 0.00 0.00 51 1012.9
20260507140718 66 276 6.0 11.0 0.00 0.00 0.00 51 1012.8
20260507140003 67 265 6.0 11.0 0.00 0.00 0.00 49 1012.9
20260507135503 68 236 6.0 11.0 0.00 0.00 0.00 41 1013.0
20260507135217 68 234 6.0 11.0 0.00 0.00 0.00 37 1012.9
20260507134718 70 252 5.0 11.0 0.00 0.00 0.00 35 1013.0
20260507134217 70 287 4.0 9.0 0.00 0.00 0.00 43 1013.0
20260507133503 70 238 5.0 11.0 0.00 0.00 0.00 30 1012.9
20260507133217 68 221 5.0 11.0 0.00 0.00 0.00 32 1012.9
20260507132503 69 207 5.0 14.0 0.00 0.00 0.00 33 1013.2
20260507132003 68 218 8.0 14.0 0.00 0.00 0.00 33 1013.1
20260507131503 68 222 6.0 13.0 0.00 0.00 0.00 33 1013.2
20260507131216 68 202 5.0 11.0 0.00 0.00 0.00 31 1013.3
20260507130503 68 205 6.0 14.0 0.00 0.00 0.00 32 1013.4
20260507130003 68 210 6.0 14.0 0.00 0.00 0.00 32 1013.5
20260507125503 68 183 4.0 11.0 0.00 0.00 0.00 31 1013.5
20260507125216 67 171 5.0 14.0 0.00 0.00 0.00 30 1013.4
20260507124503 68 214 7.0 15.0 0.00 0.00 0.00 29 1013.4
20260507124218 68 226 5.0 15.0 0.00 0.00 0.00 30 1013.5
20260507123503 68 201 4.0 11.0 0.00 0.00 0.00 31 1013.5
20260507123003 67 212 4.0 11.0 0.00 0.00 0.00 31 1013.7